This is the latest recevied weather packets stored in our database for station/object N0MPM-4. If no packets are shown the sender has not sent any weather packets the latest 10 day(s).
| Time | Temp. | Humidity | Pressure | Rain* | Wind** | Luminosity | Snow |
|---|---|---|---|---|---|---|---|
| 1777996182 | 11.67° C | 50% | 1011.8 hPa | 0 mm | - | - | - |
| 1777995882 | 11.67° C | 53% | 1011.7 hPa | 0 mm | - | - | - |
| 1777995582 | 11.11° C | 50% | 1011.8 hPa | 0 mm | - | - | - |
| 1777995282 | 11.11° C | 52% | 1011.8 hPa | 0 mm | - | - | - |
| 1777994982 | 11.11° C | 50% | 1011.8 hPa | 0 mm | - | - | - |
| 1777994682 | 10.56° C | 51% | 1011.7 hPa | 0 mm | - | - | - |
| 1777994382 | 10.56° C | 48% | 1011.6 hPa | 0 mm | - | - | - |
| 1777994082 | 10.56° C | 51% | 1011.6 hPa | 0 mm | - | - | - |
| 1777993782 | 10.56° C | 52% | 1011.7 hPa | 0 mm | - | - | - |
| 1777993482 | 10.56° C | 52% | 1011.7 hPa | 0 mm | - | - | - |
| 1777993182 | 10.56° C | 49% | 1011.6 hPa | 0 mm | - | - | - |
| 1777992882 | 10.56° C | 49% | 1011.7 hPa | 0 mm | - | - | - |
| 1777992582 | 10.56° C | 52% | 1011.7 hPa | 0 mm | - | - | - |
| 1777992282 | 10° C | 53% | 1011.8 hPa | 0 mm | - | - | - |
| 1777991982 | 10° C | 56% | 1011.7 hPa | 0 mm | - | - | - |
| 1777991682 | 10° C | 58% | 1011.6 hPa | 0 mm | - | - | - |
| 1777991382 | 10° C | 57% | 1011.4 hPa | 0 mm | - | - | - |
| 1777991082 | 10° C | 59% | 1011.3 hPa | 0 mm | - | - | - |
| 1777990782 | 10° C | 59% | 1011.1 hPa | 0 mm | - | - | - |
| 1777990482 | 10° C | 62% | 1011.1 hPa | 0 mm | - | - | - |
| 1777989882 | 10° C | 59% | 1010.9 hPa | 0 mm | - | - | - |
| 1777989582 | 10° C | 60% | 1011 hPa | 0 mm | - | - | - |
| 1777989282 | 10° C | 59% | 1010.9 hPa | 0 mm | - | - | - |
| 1777988982 | 10° C | 61% | 1010.9 hPa | 0 mm | - | - | - |
| 1777988682 | 10.56° C | 63% | 1010.8 hPa | 0 mm | - | - | - |
* Rain latest hour (hover to see other rain measurements)
** Current wind speed in m/s (hover to see current wind gust speed)